Terminal Aerodrome Forecast
Issued by NWS Cleveland, OH

Home | Current Version | Previous Version | Graphics & Text | Print | Product List | Glossary On
Versions: 1 2 3 4 5 6 7 8 9 10 11 12 13 14 15 16 17 18 19 20 21 22 23 24 25 26 27 28 29 30 31 32
000
FTUS41 KCLE 270300 AAA
TAFCLE
TAF AMD
KCLE 270304Z 2703/2806 25006KT P6SM OVC050
     FM270500 31009KT P6SM SCT030 OVC040
     FM271000 32008KT P6SM BKN019 OVC025
     FM272000 34014KT P6SM -SN OVC030
     FM280000 35008KT P6SM BKN035=

USA.gov is the U.S. government's official web portal to all federal, state and local government web resources and services.